ニオワイズ彗星

C/2016 B1 ( NEOWISE )

English version
Home page
Updated on May 26, 2021

---------------------------------------------------------------------

・ プロフィール

発見日 2016年1月17日
発見光度 19等
発見者 Near-Earth Object Wide-field Infrared Survey Explorer

・ 写真集

・ 軌道要素

Epoch 2016 Nov. 28.0 TT = JDT 2457720.5
T 2016 Dec. 4.70813 TT                                  MPCW
q   3.2061755            (2000.0)            P               Q
z  +0.0023172      Peri.    8.55711     -0.53486309     +0.58730993
 +/-0.0000012      Node   231.95371     -0.81368483     -0.55175036
e   0.9925706      Incl.   50.47481     -0.22768062     +0.59214743
From 487 observations 2016 Jan. 17-2017 Oct. 16, mean residual 0".6.

・ 星図

・ 光度変化

        m1 = 3.0 + 5 logΔ + 20.0 log r

---------------------------------------------------------------------

軌道要素はM.P.E.C. 2017-V13に掲載されたものです。
星図はステラナビゲータ Ver.10 (アストロアーツ) で作成したものです。
光度グラフはComet for Windowsで作成したものです。

---------------------------------------------------------------------

Copyright(C) Seiichi Yoshida (comet@aerith.net). All rights reserved.